Time,TemperatureF,DewpointF,PressureIn,WindDirection,WindDirectionDegrees,WindSpeedMPH,WindSpeedGustMPH,Humidity,HourlyPrecipIn,Conditions,Clouds,dailyrainin,SolarRadiationWatts/m^2,SoftwareType,DateUTC
2013-06-18 00:02:00,60.1,25.9,29.60,North,-999,-999.0,-999.0,5,0.00,,,-99.99,0.0,Linux-Irox,2013-06-18 07:02:00,
2013-06-18 00:05:00,59.9,25.7,29.60,North,-999,-999.0,-999.0,5,0.00,,,-99.99,0.0,Linux-Irox,2013-06-18 07:05:00,
2013-06-18 00:15:00,59.5,25.3,29.60,North,-999,-999.0,-999.0,5,0.00,,,-99.99,0.0,Linux-Irox,2013-06-18 07:15:00,
2013-06-18 00:16:00,59.5,25.3,29.60,North,-999,-999.0,-999.0,5,0.00,,,-99.99,0.0,Linux-Irox,2013-06-18 07:16:00,
2013-06-18 00:25:00,59.4,25.2,29.60,North,-999,-999.0,-999.0,5,0.00,,,-99.99,0.0,Linux-Irox,2013-06-18 07:25:00,
2013-06-18 00:31:00,59.2,25.0,29.60,North,-999,-999.0,-999.0,5,0.00,,,-99.99,0.0,Linux-Irox,2013-06-18 07:31:00,
2013-06-18 00:35:00,59.0,24.8,29.60,North,-999,-999.0,-999.0,5,0.00,,,-99.99,0.0,Linux-Irox,2013-06-18 07:35:00,
2013-06-18 00:45:00,58.8,24.6,29.60,North,-999,-999.0,-999.0,5,0.00,,,-99.99,0.0,Linux-Irox,2013-06-18 07:45:00,
2013-06-18 00:47:00,58.8,24.6,29.60,North,-999,-999.0,-999.0,5,0.00,,,-99.99,0.0,Linux-Irox,2013-06-18 07:47:00,
2013-06-18 00:55:00,58.8,24.6,29.60,North,-999,-999.0,-999.0,5,0.00,,,-99.99,0.0,Linux-Irox,2013-06-18 07:55:00,
2013-06-18 01:01:00,58.6,24.4,29.59,North,-999,-999.0,-999.0,5,0.00,,,-99.99,0.0,Linux-Irox,2013-06-18 08:01:00,
2013-06-18 01:05:00,58.5,24.3,29.59,North,-999,-999.0,-999.0,5,0.00,,,-99.99,0.0,Linux-Irox,2013-06-18 08:05:00,
2013-06-18 01:15:00,58.1,23.9,29.59,North,-999,-999.0,-999.0,5,0.00,,,-99.99,0.0,Linux-Irox,2013-06-18 08:15:00,
2013-06-18 01:16:00,58.1,23.9,29.59,North,-999,-999.0,-999.0,5,0.00,,,-99.99,0.0,Linux-Irox,2013-06-18 08:16:00,
2013-06-18 01:25:00,57.9,23.7,29.59,North,-999,-999.0,-999.0,5,0.00,,,-99.99,0.0,Linux-Irox,2013-06-18 08:25:00,
2013-06-18 01:32:00,57.7,23.5,29.59,North,-999,-999.0,-999.0,5,0.00,,,-99.99,0.0,Linux-Irox,2013-06-18 08:32:00,
2013-06-18 01:35:00,57.7,23.5,29.59,North,-999,-999.0,-999.0,5,0.00,,,-99.99,0.0,Linux-Irox,2013-06-18 08:35:00,
2013-06-18 01:45:00,57.7,23.5,29.59,North,-999,-999.0,-999.0,5,0.00,,,-99.99,0.0,Linux-Irox,2013-06-18 08:45:00,
2013-06-18 01:47:00,57.7,23.5,29.59,North,-999,-999.0,-999.0,5,0.00,,,-99.99,0.0,Linux-Irox,2013-06-18 08:47:00,
2013-06-18 01:55:00,57.6,23.4,29.59,North,-999,-999.0,-999.0,5,0.00,,,-99.99,0.0,Linux-Irox,2013-06-18 08:55:00,
2013-06-18 02:02:00,57.6,23.4,29.58,North,-999,-999.0,-999.0,5,0.00,,,-99.99,0.0,Linux-Irox,2013-06-18 09:02:00,
2013-06-18 02:05:00,57.4,23.2,29.58,North,-999,-999.0,-999.0,5,0.00,,,-99.99,0.0,Linux-Irox,2013-06-18 09:05:00,
2013-06-18 02:15:00,57.2,23.0,29.58,North,-999,-999.0,-999.0,5,0.00,,,-99.99,0.0,Linux-Irox,2013-06-18 09:15:00,
2013-06-18 02:16:00,57.2,23.0,29.58,North,-999,-999.0,-999.0,5,0.00,,,-99.99,0.0,Linux-Irox,2013-06-18 09:16:00,
2013-06-18 02:25:00,56.8,22.6,29.58,North,-999,-999.0,-999.0,5,0.00,,,-99.99,0.0,Linux-Irox,2013-06-18 09:25:00,
2013-06-18 02:31:00,56.7,22.5,29.58,North,-999,-999.0,-999.0,5,0.00,,,-99.99,0.0,Linux-Irox,2013-06-18 09:31:00,
2013-06-18 02:35:00,56.7,22.5,29.58,North,-999,-999.0,-999.0,5,0.00,,,-99.99,0.0,Linux-Irox,2013-06-18 09:35:00,
2013-06-18 02:45:00,56.5,22.3,29.59,North,-999,-999.0,-999.0,5,0.00,,,-99.99,0.0,Linux-Irox,2013-06-18 09:45:00,
2013-06-18 02:47:00,56.5,22.3,29.59,North,-999,-999.0,-999.0,5,0.00,,,-99.99,0.0,Linux-Irox,2013-06-18 09:47:00,
2013-06-18 02:55:00,56.3,22.1,29.59,North,-999,-999.0,-999.0,5,0.00,,,-99.99,0.0,Linux-Irox,2013-06-18 09:55:00,
2013-06-18 03:02:00,56.3,22.1,29.58,North,-999,-999.0,-999.0,5,0.00,,,-99.99,0.0,Linux-Irox,2013-06-18 10:02:00,
2013-06-18 03:05:00,56.1,21.9,29.58,North,-999,-999.0,-999.0,5,0.00,,,-99.99,0.0,Linux-Irox,2013-06-18 10:05:00,
2013-06-18 03:15:00,55.8,21.6,29.58,North,-999,-999.0,-999.0,5,0.00,,,-99.99,0.0,Linux-Irox,2013-06-18 10:15:00,
2013-06-18 03:16:00,55.8,21.6,29.58,North,-999,-999.0,-999.0,5,0.00,,,-99.99,0.0,Linux-Irox,2013-06-18 10:16:00,
2013-06-18 03:25:00,55.4,23.4,29.58,North,-999,-999.0,-999.0,11,0.00,,,-99.99,0.0,Linux-Irox,2013-06-18 10:25:00,
2013-06-18 03:31:00,55.2,22.8,29.58,North,-999,-999.0,-999.0,10,0.00,,,-99.99,0.0,Linux-Irox,2013-06-18 10:31:00,
2013-06-18 03:35:00,55.2,22.8,29.58,North,-999,-999.0,-999.0,10,0.00,,,-99.99,0.0,Linux-Irox,2013-06-18 10:35:00,
2013-06-18 03:45:00,54.9,22.5,29.57,North,-999,-999.0,-999.0,10,0.00,,,-99.99,0.0,Linux-Irox,2013-06-18 10:45:00,
2013-06-18 03:47:00,54.9,22.5,29.57,North,-999,-999.0,-999.0,10,0.00,,,-99.99,0.0,Linux-Irox,2013-06-18 10:47:00,
2013-06-18 03:55:00,54.7,22.6,29.57,North,-999,-999.0,-999.0,11,0.00,,,-99.99,0.0,Linux-Irox,2013-06-18 10:55:00,
2013-06-18 04:02:00,54.7,22.6,29.58,North,-999,-999.0,-999.0,11,0.00,,,-99.99,0.0,Linux-Irox,2013-06-18 11:02:00,
2013-06-18 04:05:00,54.5,22.5,29.58,North,-999,-999.0,-999.0,11,0.00,,,-99.99,0.0,Linux-Irox,2013-06-18 11:05:00,
2013-06-18 04:15:00,54.3,23.0,29.58,North,-999,-999.0,-999.0,13,0.00,,,-99.99,0.0,Linux-Irox,2013-06-18 11:15:00,
2013-06-18 04:16:00,54.3,23.0,29.58,North,-999,-999.0,-999.0,13,0.00,,,-99.99,0.0,Linux-Irox,2013-06-18 11:16:00,
2013-06-18 04:25:00,54.1,22.8,29.57,North,-999,-999.0,-999.0,13,0.00,,,-99.99,0.0,Linux-Irox,2013-06-18 11:25:00,
2013-06-18 04:32:00,54.0,22.6,29.57,North,-999,-999.0,-999.0,13,0.00,,,-99.99,0.0,Linux-Irox,2013-06-18 11:32:00,
2013-06-18 04:35:00,54.1,22.8,29.57,North,-999,-999.0,-999.0,13,0.00,,,-99.99,0.0,Linux-Irox,2013-06-18 11:35:00,
2013-06-18 04:45:00,53.8,22.5,29.57,North,-999,-999.0,-999.0,13,0.00,,,-99.99,0.0,Linux-Irox,2013-06-18 11:45:00,
2013-06-18 04:47:00,53.8,22.5,29.57,North,-999,-999.0,-999.0,13,0.00,,,-99.99,0.0,Linux-Irox,2013-06-18 11:47:00,
2013-06-18 04:55:00,53.8,23.2,29.57,North,-999,-999.0,-999.0,15,0.00,,,-99.99,0.0,Linux-Irox,2013-06-18 11:55:00,
2013-06-18 05:01:00,53.6,23.0,29.58,North,-999,-999.0,-999.0,15,0.00,,,-99.99,0.0,Linux-Irox,2013-06-18 12:01:00,
2013-06-18 05:05:00,53.6,23.0,29.58,North,-999,-999.0,-999.0,15,0.00,,,-99.99,0.0,Linux-Irox,2013-06-18 12:05:00,
2013-06-18 05:15:00,53.4,23.2,29.58,North,-999,-999.0,-999.0,16,0.00,,,-99.99,0.0,Linux-Irox,2013-06-18 12:15:00,
2013-06-18 05:17:00,53.4,23.2,29.58,North,-999,-999.0,-999.0,16,0.00,,,-99.99,0.0,Linux-Irox,2013-06-18 12:17:00,
2013-06-18 05:25:00,53.2,23.0,29.59,North,-999,-999.0,-999.0,16,0.00,,,-99.99,0.0,Linux-Irox,2013-06-18 12:25:00,
2013-06-18 05:31:00,53.1,22.8,29.59,North,-999,-999.0,-999.0,16,0.00,,,-99.99,0.0,Linux-Irox,2013-06-18 12:31:00,
2013-06-18 05:35:00,53.1,22.8,29.59,North,-999,-999.0,-999.0,16,0.00,,,-99.99,0.0,Linux-Irox,2013-06-18 12:35:00,
2013-06-18 05:45:00,53.1,23.9,29.59,North,-999,-999.0,-999.0,19,0.00,,,-99.99,0.0,Linux-Irox,2013-06-18 12:45:00,
2013-06-18 05:47:00,53.1,23.9,29.59,North,-999,-999.0,-999.0,19,0.00,,,-99.99,0.0,Linux-Irox,2013-06-18 12:47:00,
2013-06-18 05:55:00,53.2,24.1,29.59,North,-999,-999.0,-999.0,19,0.00,,,-99.99,0.0,Linux-Irox,2013-06-18 12:55:00,
2013-06-18 06:01:00,53.4,23.2,29.60,North,-999,-999.0,-999.0,16,0.00,,,-99.99,0.0,Linux-Irox,2013-06-18 13:01:00,
2013-06-18 06:05:00,53.4,23.2,29.60,North,-999,-999.0,-999.0,16,0.00,,,-99.99,0.0,Linux-Irox,2013-06-18 13:05:00,
2013-06-18 06:15:00,53.4,23.2,29.60,North,-999,-999.0,-999.0,16,0.00,,,-99.99,0.0,Linux-Irox,2013-06-18 13:15:00,
2013-06-18 06:16:00,53.4,23.2,29.60,North,-999,-999.0,-999.0,16,0.00,,,-99.99,0.0,Linux-Irox,2013-06-18 13:16:00,
2013-06-18 06:25:00,53.6,23.0,29.61,North,-999,-999.0,-999.0,15,0.00,,,-99.99,0.0,Linux-Irox,2013-06-18 13:25:00,
2013-06-18 06:31:00,53.6,23.0,29.61,North,-999,-999.0,-999.0,15,0.00,,,-99.99,0.0,Linux-Irox,2013-06-18 13:31:00,
2013-06-18 06:35:00,53.8,23.2,29.61,North,-999,-999.0,-999.0,15,0.00,,,-99.99,0.0,Linux-Irox,2013-06-18 13:35:00,
2013-06-18 06:45:00,59.2,29.7,29.62,North,-999,-999.0,-999.0,18,0.00,,,-99.99,0.0,Linux-Irox,2013-06-18 13:45:00,
2013-06-18 06:46:00,59.2,29.7,29.62,North,-999,-999.0,-999.0,18,0.00,,,-99.99,0.0,Linux-Irox,2013-06-18 13:46:00,
2013-06-18 06:55:00,64.2,32.5,29.62,North,-999,-999.0,-999.0,12,0.00,,,-99.99,0.0,Linux-Irox,2013-06-18 13:55:00,
2013-06-18 07:01:00,67.1,34.7,29.60,North,-999,-999.0,-999.0,10,0.00,,,-99.99,0.0,Linux-Irox,2013-06-18 14:01:00,
2013-06-18 07:05:00,67.3,34.9,29.60,North,-999,-999.0,-999.0,10,0.00,,,-99.99,0.0,Linux-Irox,2013-06-18 14:05:00,
2013-06-18 07:15:00,69.1,34.9,29.60,North,-999,-999.0,-999.0,5,0.00,,,-99.99,0.0,Linux-Irox,2013-06-18 14:15:00,
2013-06-18 07:16:00,69.1,34.9,29.60,North,-999,-999.0,-999.0,5,0.00,,,-99.99,0.0,Linux-Irox,2013-06-18 14:16:00,
2013-06-18 07:25:00,70.3,36.1,29.58,North,-999,-999.0,-999.0,5,0.00,,,-99.99,0.0,Linux-Irox,2013-06-18 14:25:00,
2013-06-18 07:31:00,71.1,36.9,29.58,North,-999,-999.0,-999.0,5,0.00,,,-99.99,0.0,Linux-Irox,2013-06-18 14:31:00,
2013-06-18 07:35:00,71.8,37.6,29.58,North,-999,-999.0,-999.0,5,0.00,,,-99.99,0.0,Linux-Irox,2013-06-18 14:35:00,
2013-06-18 07:45:00,71.6,37.4,29.57,North,-999,-999.0,-999.0,5,0.00,,,-99.99,0.0,Linux-Irox,2013-06-18 14:45:00,
2013-06-18 07:47:00,71.6,37.4,29.57,North,-999,-999.0,-999.0,5,0.00,,,-99.99,0.0,Linux-Irox,2013-06-18 14:47:00,
2013-06-18 07:55:00,71.1,36.9,29.57,North,-999,-999.0,-999.0,5,0.00,,,-99.99,0.0,Linux-Irox,2013-06-18 14:55:00,
2013-06-18 08:02:00,71.6,37.4,29.57,North,-999,-999.0,-999.0,5,0.00,,,-99.99,0.0,Linux-Irox,2013-06-18 15:02:00,
2013-06-18 08:05:00,71.8,37.6,29.57,North,-999,-999.0,-999.0,5,0.00,,,-99.99,0.0,Linux-Irox,2013-06-18 15:05:00,
2013-06-18 08:15:00,72.1,37.9,29.57,North,-999,-999.0,-999.0,5,0.00,,,-99.99,0.0,Linux-Irox,2013-06-18 15:15:00,
2013-06-18 08:16:00,72.1,37.9,29.57,North,-999,-999.0,-999.0,5,0.00,,,-99.99,0.0,Linux-Irox,2013-06-18 15:16:00,
2013-06-18 08:25:00,71.8,37.6,29.56,North,-999,-999.0,-999.0,5,0.00,,,-99.99,0.0,Linux-Irox,2013-06-18 15:25:00,
2013-06-18 08:31:00,72.1,37.9,29.56,North,-999,-999.0,-999.0,5,0.00,,,-99.99,0.0,Linux-Irox,2013-06-18 15:31:00,
2013-06-18 08:35:00,73.2,39.0,29.56,North,-999,-999.0,-999.0,5,0.00,,,-99.99,0.0,Linux-Irox,2013-06-18 15:35:00,
2013-06-18 08:45:00,73.8,39.6,29.56,North,-999,-999.0,-999.0,5,0.00,,,-99.99,0.0,Linux-Irox,2013-06-18 15:45:00,
2013-06-18 08:46:00,73.8,39.6,29.56,North,-999,-999.0,-999.0,5,0.00,,,-99.99,0.0,Linux-Irox,2013-06-18 15:46:00,
2013-06-18 08:55:00,73.6,39.4,29.56,North,-999,-999.0,-999.0,5,0.00,,,-99.99,0.0,Linux-Irox,2013-06-18 15:55:00,
2013-06-18 09:01:00,74.7,40.5,29.56,North,-999,-999.0,-999.0,5,0.00,,,-99.99,0.0,Linux-Irox,2013-06-18 16:01:00,
2013-06-18 09:05:00,75.4,41.2,29.56,North,-999,-999.0,-999.0,5,0.00,,,-99.99,0.0,Linux-Irox,2013-06-18 16:05:00,
2013-06-18 09:15:00,74.5,40.3,29.56,North,-999,-999.0,-999.0,5,0.00,,,-99.99,0.0,Linux-Irox,2013-06-18 16:15:00,
2013-06-18 09:16:00,74.5,40.3,29.56,North,-999,-999.0,-999.0,5,0.00,,,-99.99,0.0,Linux-Irox,2013-06-18 16:16:00,
2013-06-18 09:25:00,74.3,40.1,29.57,North,-999,-999.0,-999.0,5,0.00,,,-99.99,0.0,Linux-Irox,2013-06-18 16:25:00,
2013-06-18 09:32:00,75.0,40.8,29.57,North,-999,-999.0,-999.0,5,0.00,,,-99.99,0.0,Linux-Irox,2013-06-18 16:32:00,
2013-06-18 09:35:00,75.4,41.2,29.57,North,-999,-999.0,-999.0,5,0.00,,,-99.99,0.0,Linux-Irox,2013-06-18 16:35:00,
2013-06-18 09:45:00,75.2,41.0,29.56,North,-999,-999.0,-999.0,5,0.00,,,-99.99,0.0,Linux-Irox,2013-06-18 16:45:00,
2013-06-18 09:46:00,75.2,41.0,29.56,North,-999,-999.0,-999.0,5,0.00,,,-99.99,0.0,Linux-Irox,2013-06-18 16:46:00,
2013-06-18 09:55:00,75.4,41.2,29.56,North,-999,-999.0,-999.0,5,0.00,,,-99.99,0.0,Linux-Irox,2013-06-18 16:55:00,
2013-06-18 10:01:00,75.6,41.4,29.56,North,-999,-999.0,-999.0,5,0.00,,,-99.99,0.0,Linux-Irox,2013-06-18 17:01:00,
2013-06-18 10:05:00,75.4,41.2,29.56,North,-999,-999.0,-999.0,5,0.00,,,-99.99,0.0,Linux-Irox,2013-06-18 17:05:00,
2013-06-18 10:15:00,75.4,41.2,29.56,North,-999,-999.0,-999.0,5,0.00,,,-99.99,0.0,Linux-Irox,2013-06-18 17:15:00,
2013-06-18 10:17:00,75.4,41.2,29.56,North,-999,-999.0,-999.0,5,0.00,,,-99.99,0.0,Linux-Irox,2013-06-18 17:17:00,
2013-06-18 10:25:00,76.5,42.3,29.57,North,-999,-999.0,-999.0,5,0.00,,,-99.99,0.0,Linux-Irox,2013-06-18 17:25:00,
2013-06-18 10:31:00,75.7,41.5,29.57,North,-999,-999.0,-999.0,5,0.00,,,-99.99,0.0,Linux-Irox,2013-06-18 17:31:00,
2013-06-18 10:35:00,75.6,41.4,29.57,North,-999,-999.0,-999.0,5,0.00,,,-99.99,0.0,Linux-Irox,2013-06-18 17:35:00,
2013-06-18 10:45:00,75.7,41.5,29.58,North,-999,-999.0,-999.0,5,0.00,,,-99.99,0.0,Linux-Irox,2013-06-18 17:45:00,
2013-06-18 10:46:00,75.7,41.5,29.58,North,-999,-999.0,-999.0,5,0.00,,,-99.99,0.0,Linux-Irox,2013-06-18 17:46:00,
2013-06-18 10:55:00,76.1,41.9,29.58,North,-999,-999.0,-999.0,5,0.00,,,-99.99,0.0,Linux-Irox,2013-06-18 17:55:00,
2013-06-18 11:01:00,76.5,42.3,29.59,North,-999,-999.0,-999.0,5,0.00,,,-99.99,0.0,Linux-Irox,2013-06-18 18:01:00,
2013-06-18 11:05:00,76.6,42.4,29.59,North,-999,-999.0,-999.0,5,0.00,,,-99.99,0.0,Linux-Irox,2013-06-18 18:05:00,
2013-06-18 11:15:00,76.8,42.6,29.59,North,-999,-999.0,-999.0,5,0.00,,,-99.99,0.0,Linux-Irox,2013-06-18 18:15:00,
2013-06-18 11:16:00,76.8,42.6,29.59,North,-999,-999.0,-999.0,5,0.00,,,-99.99,0.0,Linux-Irox,2013-06-18 18:16:00,
2013-06-18 11:25:00,76.6,42.4,29.58,North,-999,-999.0,-999.0,5,0.00,,,-99.99,0.0,Linux-Irox,2013-06-18 18:25:00,
2013-06-18 11:31:00,77.7,43.5,29.58,North,-999,-999.0,-999.0,5,0.00,,,-99.99,0.0,Linux-Irox,2013-06-18 18:31:00,
2013-06-18 11:35:00,76.6,42.4,29.58,North,-999,-999.0,-999.0,5,0.00,,,-99.99,0.0,Linux-Irox,2013-06-18 18:35:00,
2013-06-18 11:45:00,75.7,41.5,29.58,North,-999,-999.0,-999.0,5,0.00,,,-99.99,0.0,Linux-Irox,2013-06-18 18:45:00,
2013-06-18 11:47:00,75.7,41.5,29.58,North,-999,-999.0,-999.0,5,0.00,,,-99.99,0.0,Linux-Irox,2013-06-18 18:47:00,
2013-06-18 11:55:00,75.9,41.7,29.58,North,-999,-999.0,-999.0,5,0.00,,,-99.99,0.0,Linux-Irox,2013-06-18 18:55:00,
2013-06-18 12:01:00,76.1,41.9,29.58,North,-999,-999.0,-999.0,5,0.00,,,-99.99,0.0,Linux-Irox,2013-06-18 19:01:00,
2013-06-18 12:05:00,76.1,41.9,29.58,North,-999,-999.0,-999.0,5,0.00,,,-99.99,0.0,Linux-Irox,2013-06-18 19:05:00,
2013-06-18 12:15:00,75.9,41.7,29.58,North,-999,-999.0,-999.0,5,0.00,,,-99.99,0.0,Linux-Irox,2013-06-18 19:15:00,
2013-06-18 12:17:00,75.9,41.7,29.58,North,-999,-999.0,-999.0,5,0.00,,,-99.99,0.0,Linux-Irox,2013-06-18 19:17:00,
2013-06-18 12:25:00,75.2,41.0,29.58,North,-999,-999.0,-999.0,5,0.00,,,-99.99,0.0,Linux-Irox,2013-06-18 19:25:00,
2013-06-18 12:32:00,75.9,41.7,29.58,North,-999,-999.0,-999.0,5,0.00,,,-99.99,0.0,Linux-Irox,2013-06-18 19:32:00,
2013-06-18 12:35:00,76.1,41.9,29.58,North,-999,-999.0,-999.0,5,0.00,,,-99.99,0.0,Linux-Irox,2013-06-18 19:35:00,
2013-06-18 12:45:00,75.2,41.0,29.58,North,-999,-999.0,-999.0,5,0.00,,,-99.99,0.0,Linux-Irox,2013-06-18 19:45:00,
2013-06-18 12:47:00,75.2,41.0,29.58,North,-999,-999.0,-999.0,5,0.00,,,-99.99,0.0,Linux-Irox,2013-06-18 19:47:00,
2013-06-18 12:55:00,75.6,41.4,29.58,North,-999,-999.0,-999.0,5,0.00,,,-99.99,0.0,Linux-Irox,2013-06-18 19:55:00,
2013-06-18 13:02:00,75.7,41.5,29.56,North,-999,-999.0,-999.0,5,0.00,,,-99.99,0.0,Linux-Irox,2013-06-18 20:02:00,
2013-06-18 13:05:00,75.2,41.0,29.56,North,-999,-999.0,-999.0,5,0.00,,,-99.99,0.0,Linux-Irox,2013-06-18 20:05:00,
2013-06-18 13:15:00,75.0,40.8,29.56,North,-999,-999.0,-999.0,5,0.00,,,-99.99,0.0,Linux-Irox,2013-06-18 20:15:00,
2013-06-18 13:17:00,75.0,40.8,29.56,North,-999,-999.0,-999.0,5,0.00,,,-99.99,0.0,Linux-Irox,2013-06-18 20:17:00,
2013-06-18 13:25:00,75.4,41.2,29.56,North,-999,-999.0,-999.0,5,0.00,,,-99.99,0.0,Linux-Irox,2013-06-18 20:25:00,
2013-06-18 13:31:00,73.9,39.7,29.56,North,-999,-999.0,-999.0,5,0.00,,,-99.99,0.0,Linux-Irox,2013-06-18 20:31:00,
2013-06-18 13:35:00,74.8,40.6,29.56,North,-999,-999.0,-999.0,5,0.00,,,-99.99,0.0,Linux-Irox,2013-06-18 20:35:00,
2013-06-18 13:45:00,76.6,42.4,29.56,North,-999,-999.0,-999.0,5,0.00,,,-99.99,0.0,Linux-Irox,2013-06-18 20:45:00,
2013-06-18 13:46:00,76.6,42.4,29.56,North,-999,-999.0,-999.0,5,0.00,,,-99.99,0.0,Linux-Irox,2013-06-18 20:46:00,
2013-06-18 13:55:00,75.9,41.7,29.56,North,-999,-999.0,-999.0,5,0.00,,,-99.99,0.0,Linux-Irox,2013-06-18 20:55:00,
2013-06-18 14:02:00,76.1,41.9,29.56,North,-999,-999.0,-999.0,5,0.00,,,-99.99,0.0,Linux-Irox,2013-06-18 21:02:00,
2013-06-18 14:05:00,75.7,41.5,29.56,North,-999,-999.0,-999.0,5,0.00,,,-99.99,0.0,Linux-Irox,2013-06-18 21:05:00,
2013-06-18 14:15:00,75.7,41.5,29.56,North,-999,-999.0,-999.0,5,0.00,,,-99.99,0.0,Linux-Irox,2013-06-18 21:15:00,
2013-06-18 14:17:00,75.7,41.5,29.56,North,-999,-999.0,-999.0,5,0.00,,,-99.99,0.0,Linux-Irox,2013-06-18 21:17:00,
2013-06-18 14:25:00,76.8,42.6,29.55,North,-999,-999.0,-999.0,5,0.00,,,-99.99,0.0,Linux-Irox,2013-06-18 21:25:00,
2013-06-18 14:32:00,78.3,44.1,29.55,North,-999,-999.0,-999.0,5,0.00,,,-99.99,0.0,Linux-Irox,2013-06-18 21:32:00,
2013-06-18 14:35:00,78.1,43.9,29.55,North,-999,-999.0,-999.0,5,0.00,,,-99.99,0.0,Linux-Irox,2013-06-18 21:35:00,
2013-06-18 14:45:00,77.7,43.5,29.53,North,-999,-999.0,-999.0,5,0.00,,,-99.99,0.0,Linux-Irox,2013-06-18 21:45:00,
2013-06-18 14:47:00,77.7,43.5,29.53,North,-999,-999.0,-999.0,5,0.00,,,-99.99,0.0,Linux-Irox,2013-06-18 21:47:00,
2013-06-18 14:55:00,78.3,44.1,29.53,North,-999,-999.0,-999.0,5,0.00,,,-99.99,0.0,Linux-Irox,2013-06-18 21:55:00,
2013-06-18 15:02:00,78.6,44.4,29.54,North,-999,-999.0,-999.0,5,0.00,,,-99.99,0.0,Linux-Irox,2013-06-18 22:02:00,
2013-06-18 15:05:00,78.6,44.4,29.54,North,-999,-999.0,-999.0,5,0.00,,,-99.99,0.0,Linux-Irox,2013-06-18 22:05:00,
2013-06-18 15:15:00,78.6,44.4,29.54,North,-999,-999.0,-999.0,5,0.00,,,-99.99,0.0,Linux-Irox,2013-06-18 22:15:00,
2013-06-18 15:16:00,78.6,44.4,29.54,North,-999,-999.0,-999.0,5,0.00,,,-99.99,0.0,Linux-Irox,2013-06-18 22:16:00,
2013-06-18 15:25:00,78.3,44.1,29.53,North,-999,-999.0,-999.0,5,0.00,,,-99.99,0.0,Linux-Irox,2013-06-18 22:25:00,
2013-06-18 15:31:00,78.8,44.6,29.53,North,-999,-999.0,-999.0,5,0.00,,,-99.99,0.0,Linux-Irox,2013-06-18 22:31:00,
2013-06-18 15:35:00,78.6,44.4,29.53,North,-999,-999.0,-999.0,5,0.00,,,-99.99,0.0,Linux-Irox,2013-06-18 22:35:00,
2013-06-18 15:45:00,78.4,44.2,29.53,North,-999,-999.0,-999.0,5,0.00,,,-99.99,0.0,Linux-Irox,2013-06-18 22:45:00,
2013-06-18 15:47:00,78.4,44.2,29.53,North,-999,-999.0,-999.0,5,0.00,,,-99.99,0.0,Linux-Irox,2013-06-18 22:47:00,
2013-06-18 15:55:00,77.9,43.7,29.53,North,-999,-999.0,-999.0,5,0.00,,,-99.99,0.0,Linux-Irox,2013-06-18 22:55:00,
2013-06-18 16:05:00,77.9,43.7,29.53,North,-999,-999.0,-999.0,5,0.00,,,-99.99,0.0,Linux-Irox,2013-06-18 23:05:00,
2013-06-18 16:15:00,77.4,43.2,29.53,North,-999,-999.0,-999.0,5,0.00,,,-99.99,0.0,Linux-Irox,2013-06-18 23:15:00,
2013-06-18 16:25:00,76.8,42.6,29.53,North,-999,-999.0,-999.0,5,0.00,,,-99.99,0.0,Linux-Irox,2013-06-18 23:25:00,
2013-06-18 16:35:00,76.5,42.3,29.53,North,-999,-999.0,-999.0,5,0.00,,,-99.99,0.0,Linux-Irox,2013-06-18 23:35:00,
2013-06-18 16:45:00,76.1,41.9,29.53,North,-999,-999.0,-999.0,5,0.00,,,-99.99,0.0,Linux-Irox,2013-06-18 23:45:00,
2013-06-18 16:55:00,75.7,41.5,29.53,North,-999,-999.0,-999.0,5,0.00,,,-99.99,0.0,Linux-Irox,2013-06-18 23:55:00,
2013-06-18 17:05:00,75.0,40.8,29.51,North,-999,-999.0,-999.0,5,0.00,,,-99.99,0.0,Linux-Irox,2013-06-19 00:05:00,
2013-06-18 17:15:00,74.5,40.3,29.51,North,-999,-999.0,-999.0,5,0.00,,,-99.99,0.0,Linux-Irox,2013-06-19 00:15:00,
2013-06-18 17:25:00,74.1,39.9,29.50,North,-999,-999.0,-999.0,5,0.00,,,-99.99,0.0,Linux-Irox,2013-06-19 00:25:00,
2013-06-18 17:35:00,73.8,39.6,29.50,North,-999,-999.0,-999.0,5,0.00,,,-99.99,0.0,Linux-Irox,2013-06-19 00:35:00,
2013-06-18 17:45:00,73.2,39.0,29.49,North,-999,-999.0,-999.0,5,0.00,,,-99.99,0.0,Linux-Irox,2013-06-19 00:45:00,
2013-06-18 17:55:00,72.9,38.7,29.49,North,-999,-999.0,-999.0,5,0.00,,,-99.99,0.0,Linux-Irox,2013-06-19 00:55:00,
2013-06-18 18:05:00,72.5,38.3,29.43,North,-999,-999.0,-999.0,5,0.00,,,-99.99,0.0,Linux-Irox,2013-06-19 01:05:00,
2013-06-18 18:15:00,71.8,37.6,29.43,North,-999,-999.0,-999.0,5,0.00,,,-99.99,0.0,Linux-Irox,2013-06-19 01:15:00,
2013-06-18 18:25:00,71.6,37.4,29.39,North,-999,-999.0,-999.0,5,0.00,,,-99.99,0.0,Linux-Irox,2013-06-19 01:25:00,
2013-06-18 18:35:00,71.6,37.4,29.39,North,-999,-999.0,-999.0,5,0.00,,,-99.99,0.0,Linux-Irox,2013-06-19 01:35:00,
2013-06-18 18:45:00,71.8,37.6,29.39,North,-999,-999.0,-999.0,5,0.00,,,-99.99,0.0,Linux-Irox,2013-06-19 01:45:00,
2013-06-18 18:55:00,71.4,37.2,29.39,North,-999,-999.0,-999.0,5,0.00,,,-99.99,0.0,Linux-Irox,2013-06-19 01:55:00,
2013-06-18 19:05:00,71.6,37.4,29.46,North,-999,-999.0,-999.0,5,0.00,,,-99.99,0.0,Linux-Irox,2013-06-19 02:05:00,
2013-06-18 19:15:00,69.1,34.9,29.46,North,-999,-999.0,-999.0,5,0.00,,,-99.99,0.0,Linux-Irox,2013-06-19 02:15:00,
2013-06-18 19:25:00,67.3,33.1,29.48,North,-999,-999.0,-999.0,5,0.00,,,-99.99,0.0,Linux-Irox,2013-06-19 02:25:00,
2013-06-18 19:35:00,66.4,32.2,29.48,North,-999,-999.0,-999.0,5,0.00,,,-99.99,0.0,Linux-Irox,2013-06-19 02:35:00,
2013-06-18 19:45:00,65.3,31.1,29.49,North,-999,-999.0,-999.0,5,0.00,,,-99.99,0.0,Linux-Irox,2013-06-19 02:45:00,
2013-06-18 19:55:00,64.4,30.2,29.49,North,-999,-999.0,-999.0,5,0.00,,,-99.99,0.0,Linux-Irox,2013-06-19 02:55:00,
2013-06-18 20:05:00,63.5,29.3,29.50,North,-999,-999.0,-999.0,5,0.00,,,-99.99,0.0,Linux-Irox,2013-06-19 03:05:00,
2013-06-18 20:15:00,63.0,28.8,29.50,North,-999,-999.0,-999.0,5,0.00,,,-99.99,0.0,Linux-Irox,2013-06-19 03:15:00,
2013-06-18 20:16:00,63.0,28.8,29.50,North,-999,-999.0,-999.0,5,0.00,,,-99.99,0.0,Linux-Irox,2013-06-19 03:16:00,
2013-06-18 20:25:00,62.2,28.0,29.51,North,-999,-999.0,-999.0,5,0.00,,,-99.99,0.0,Linux-Irox,2013-06-19 03:25:00,
2013-06-18 20:31:00,62.1,27.9,29.51,North,-999,-999.0,-999.0,5,0.00,,,-99.99,0.0,Linux-Irox,2013-06-19 03:31:00,
2013-06-18 20:35:00,61.9,27.7,29.51,North,-999,-999.0,-999.0,5,0.00,,,-99.99,0.0,Linux-Irox,2013-06-19 03:35:00,
2013-06-18 20:45:00,61.2,27.0,29.52,North,-999,-999.0,-999.0,5,0.00,,,-99.99,0.0,Linux-Irox,2013-06-19 03:45:00,
2013-06-18 20:47:00,61.2,27.0,29.52,North,-999,-999.0,-999.0,5,0.00,,,-99.99,0.0,Linux-Irox,2013-06-19 03:47:00,
2013-06-18 20:55:00,60.8,26.6,29.52,North,-999,-999.0,-999.0,5,0.00,,,-99.99,0.0,Linux-Irox,2013-06-19 03:55:00,
2013-06-18 21:01:00,60.6,26.4,29.54,North,-999,-999.0,-999.0,5,0.00,,,-99.99,0.0,Linux-Irox,2013-06-19 04:01:00,
2013-06-18 21:05:00,60.4,26.2,29.54,North,-999,-999.0,-999.0,5,0.00,,,-99.99,0.0,Linux-Irox,2013-06-19 04:05:00,
2013-06-18 21:15:00,60.3,26.1,29.54,North,-999,-999.0,-999.0,5,0.00,,,-99.99,0.0,Linux-Irox,2013-06-19 04:15:00,
2013-06-18 21:16:00,60.3,26.1,29.54,North,-999,-999.0,-999.0,5,0.00,,,-99.99,0.0,Linux-Irox,2013-06-19 04:16:00,
2013-06-18 21:25:00,59.9,25.7,29.55,North,-999,-999.0,-999.0,5,0.00,,,-99.99,0.0,Linux-Irox,2013-06-19 04:25:00,
2013-06-18 21:31:00,59.7,25.5,29.55,North,-999,-999.0,-999.0,5,0.00,,,-99.99,0.0,Linux-Irox,2013-06-19 04:31:00,
2013-06-18 21:35:00,59.5,25.3,29.55,North,-999,-999.0,-999.0,5,0.00,,,-99.99,0.0,Linux-Irox,2013-06-19 04:35:00,
2013-06-18 21:45:00,59.0,24.8,29.56,North,-999,-999.0,-999.0,5,0.00,,,-99.99,0.0,Linux-Irox,2013-06-19 04:45:00,
2013-06-18 21:47:00,59.0,24.8,29.56,North,-999,-999.0,-999.0,5,0.00,,,-99.99,0.0,Linux-Irox,2013-06-19 04:47:00,
2013-06-18 21:55:00,58.8,24.6,29.56,North,-999,-999.0,-999.0,5,0.00,,,-99.99,0.0,Linux-Irox,2013-06-19 04:55:00,
2013-06-18 22:01:00,58.5,24.3,29.56,North,-999,-999.0,-999.0,5,0.00,,,-99.99,0.0,Linux-Irox,2013-06-19 05:01:00,
2013-06-18 22:05:00,58.1,23.9,29.56,North,-999,-999.0,-999.0,5,0.00,,,-99.99,0.0,Linux-Irox,2013-06-19 05:05:00,
2013-06-18 22:15:00,57.7,23.5,29.56,North,-999,-999.0,-999.0,5,0.00,,,-99.99,0.0,Linux-Irox,2013-06-19 05:15:00,
2013-06-18 22:17:00,57.7,23.5,29.56,North,-999,-999.0,-999.0,5,0.00,,,-99.99,0.0,Linux-Irox,2013-06-19 05:17:00,
2013-06-18 22:25:00,57.6,23.4,29.58,North,-999,-999.0,-999.0,5,0.00,,,-99.99,0.0,Linux-Irox,2013-06-19 05:25:00,
2013-06-18 22:32:00,57.4,23.2,29.58,North,-999,-999.0,-999.0,5,0.00,,,-99.99,0.0,Linux-Irox,2013-06-19 05:32:00,
2013-06-18 22:35:00,57.2,23.0,29.58,North,-999,-999.0,-999.0,5,0.00,,,-99.99,0.0,Linux-Irox,2013-06-19 05:35:00,
2013-06-18 22:45:00,56.8,22.6,29.60,North,-999,-999.0,-999.0,5,0.00,,,-99.99,0.0,Linux-Irox,2013-06-19 05:45:00,
2013-06-18 22:46:00,56.8,22.6,29.60,North,-999,-999.0,-999.0,5,0.00,,,-99.99,0.0,Linux-Irox,2013-06-19 05:46:00,
2013-06-18 22:55:00,56.7,22.5,29.60,North,-999,-999.0,-999.0,5,0.00,,,-99.99,0.0,Linux-Irox,2013-06-19 05:55:00,
2013-06-18 23:01:00,56.5,22.3,29.59,North,-999,-999.0,-999.0,5,0.00,,,-99.99,0.0,Linux-Irox,2013-06-19 06:01:00,
2013-06-18 23:05:00,56.3,22.1,29.59,North,-999,-999.0,-999.0,5,0.00,,,-99.99,0.0,Linux-Irox,2013-06-19 06:05:00,
2013-06-18 23:15:00,55.9,21.7,29.59,North,-999,-999.0,-999.0,5,0.00,,,-99.99,0.0,Linux-Irox,2013-06-19 06:15:00,
2013-06-18 23:17:00,55.9,21.7,29.59,North,-999,-999.0,-999.0,5,0.00,,,-99.99,0.0,Linux-Irox,2013-06-19 06:17:00,
2013-06-18 23:25:00,55.6,21.4,29.57,North,-999,-999.0,-999.0,5,0.00,,,-99.99,0.0,Linux-Irox,2013-06-19 06:25:00,
2013-06-18 23:31:00,55.4,21.2,29.57,North,-999,-999.0,-999.0,5,0.00,,,-99.99,0.0,Linux-Irox,2013-06-19 06:31:00,
2013-06-18 23:35:00,55.2,21.0,29.57,North,-999,-999.0,-999.0,5,0.00,,,-99.99,0.0,Linux-Irox,2013-06-19 06:35:00,
2013-06-18 23:45:00,55.0,20.8,29.57,North,-999,-999.0,-999.0,5,0.00,,,-99.99,0.0,Linux-Irox,2013-06-19 06:45:00,
2013-06-18 23:47:00,55.0,20.8,29.57,North,-999,-999.0,-999.0,5,0.00,,,-99.99,0.0,Linux-Irox,2013-06-19 06:47:00,
2013-06-18 23:55:00,54.7,20.5,29.57,North,-999,-999.0,-999.0,5,0.00,,,-99.99,0.0,Linux-Irox,2013-06-19 06:55:00,